Mecheria, Algeria

8:47 PM CET on November 11, 2019 (GMT +0100)
Mecheria

Weather History for DAAY - June, 2019

Change the Weather History Date:

Friday, June 14, 2019

  Actual Average (WUND) Record (WUND)
Temperature  
Mean Temperature 74 °F -  
Max Temperature 89 °F - - (-1)
Min Temperature 59 °F - - (-1)
Cooling Degree Days 9    
Growing Degree Days 24 (Base 50)    
Moisture  
Dew Point 59 °F    
Average Humidity 57    
Maximum Humidity 100    
Minimum Humidity 23    
Precipitation  
Precipitation 0.00 in - - ()
Sea Level Pressure  
Sea Level Pressure 30.11 in    
Wind  
Wind Speed 7 mph ()    
Max Wind Speed 18 mph    
Max Gust Speed -    
Visibility 5.9 miles    
Events      
Averages and records for this station are not official NWS values.
T = Trace of Precipitation, MM = Missing Value Source: Averaged Metar Reports

Daily Weather History Graph

Daily Weather History Graph

Search for Another Location

Airport or City:

Astronomy

Jun. 14, 2019 Rise Set
Actual Time 5:50 AM CET 8:12 PM CET
Civil Twilight 5:21 AM CET 8:41 PM CET
Nautical Twilight 4:45 AM CET 9:16 PM CET
Astronomical Twilight 4:07 AM CET 9:55 PM CET
Moon 5:25 PM CET (6/14) 3:49 AM CET (6/14)
Length of Visible Light 15h 19m
Length of Day
14h 21m
Waxing Gibbous, 91% of the Moon is Illuminated
Jun 14
Waxing Gibbous
Jun 17
Full
Jun 25
Last Quarter
Jul 2
New
Jul 9
First Quarter

Hourly Weather History & Observations

Time (CET) Temp. Heat Index Dew Point Humidity Pressure Visibility Wind Dir Wind Speed Gust Speed Precip Events Conditions
12:00 AM 78.8 °F - 44.6 °F 30% 29.98 in 3.7 mi SSW 18.4 mph - N/A   Unknown
5:00 AM 60.8 °F - 60.8 °F 100% 30.09 in - North 11.5 mph - N/A   Clear
6:00 AM 60.8 °F - 59.0 °F 94% 30.09 in 6.2 mi Calm Calm - N/A   Partly Cloudy
7:00 AM 61 °F - 60 °F 95%  in 6 mi Calm Calm - -   Scattered Clouds
7:00 AM 60.8 °F - 60.8 °F 100% 30.09 in 6.2 mi Calm Calm - N/A   Partly Cloudy
8:00 AM 64.4 °F - 62.6 °F 94% 30.12 in 6.2 mi Calm Calm - N/A   Partly Cloudy
9:00 AM 68.0 °F - 62.6 °F 83% 30.15 in - Calm Calm - N/A   Clear
10:00 AM 71 °F - 63 °F 70%  in 6 mi Calm Calm - -  
10:00 AM 71.6 °F - 62.6 °F 73% 30.15 in - Calm Calm - N/A   Clear
11:00 AM 75.2 °F - 62.6 °F 65% 30.15 in - Calm Calm - N/A   Clear
12:00 PM 78.8 °F - 62.6 °F 57% 30.15 in - Calm Calm - N/A   Clear
1:00 PM 82 °F - 59 °F 36%  in 6 mi South 11.5 mph - -  
1:00 PM 82.4 °F 82.5 °F 59.0 °F 45% 30.15 in - South 11.5 mph - N/A   Clear
2:00 PM 84.2 °F 83.8 °F 59.0 °F 42% 30.12 in - SW 16.1 mph - N/A   Clear
3:00 PM 86.0 °F 85.4 °F 59.0 °F 40% 30.12 in - SW 11.5 mph - N/A   Clear
4:00 PM 88 °F - 59 °F 27%  in 6 mi West 13.8 mph - -   Scattered Clouds
4:00 PM 87.8 °F 87.1 °F 59.0 °F 38% 30.12 in 6.2 mi West 13.8 mph - N/A   Partly Cloudy
5:00 PM 89.6 °F 87.7 °F 55.4 °F 31% 30.09 in 6.2 mi WSW 11.5 mph - N/A   Partly Cloudy
6:00 PM 87.8 °F 86.5 °F 57.2 °F 35% 30.09 in 6.2 mi West 11.5 mph - N/A   Scattered Clouds
7:00 PM 87 °F - 55 °F 23%  in 6 mi West 9.2 mph - -   Scattered Clouds
7:00 PM 86.0 °F 84.5 °F 55.4 °F 35% 30.09 in 6.2 mi West 9.2 mph - N/A   Scattered Clouds
8:00 PM 84.2 °F 82.8 °F 53.6 °F 35% 30.09 in - North 11.5 mph - N/A   Clear
9:00 PM 80.6 °F - 51.8 °F 37% 30.12 in - North 9.2 mph - N/A   Clear
10:00 PM 75.2 °F - 64.4 °F 69% 30.15 in - North 18.4 mph - N/A   Clear
11:00 PM 71.6 °F - 64.4 °F 78% 30.18 in - North 18.4 mph - N/A   Clear